THOR ABLESTAR DEB, 150

Orbit data source: Space-Track

THOR ABLESTAR DEB, 150 is space debris in LEO originally from a launch on Thu, 29 Jun 1961 UTC launched from the Air Force Eastern Test Range (AFETR). Debris objects in space refer to the collection of defunct objects orbiting the Earth. Examples of debris include non-operational satellites, rocket bodies, and fragments generated from explosions, collisions, or faulty payload assembly.

Loading next visibility...
Identifier
150, 1961-015AL
Orbit
LEO
Country
Flag of USUS
Related business
Manufacturer
Unknown
Mission
Spacecraft
Bus & Motor
Unknown
Mass
Unknown
Launch date (UTC)
1961-06-29 (64 years ago)
Launch vehicle
Unknown
Launch site
Air Force Eastern Test Range (AFETR)
Object type
Payload
Rocket body
Debris
Shape & HBR
Unknown shape, 0.1 m
Radar Cross Section
Medium (>0.1 m² and <1 m²)

Expand to show TLE details & history
Last TLE update: 5 hours ago

TLE from 5 hours ago
0 THOR ABLESTAR DEB
1   150U 61015AL  25304.60285611  .00000301  00000-0  34053-3 0  9994
2   150  66.2457 106.9307 0055192  22.5397 337.8080 13.83608734 76874
Epoch: 2025-10-31T14:28Z
TLE epoch observation values (Epoch: 2025-10-31T14:28:06.767Z)
Latitude
-0.00001°
Longitude
-150.24243°
Altitude
915.714 km
Speed
7.413 km/s
True Right ascension
07h 07m 43s
True Declination
0° 00' 00"
Sunlit
Object was in daylight at epoch
Visualization orbit readout
Latitude
Unknown
Longitude
Unknown
Altitude
Unknown
Speed
Unknown
Apparent Right ascension
Unknown
Apparent Declination
Unknown
Sunlit
N/A
Visualization observer readout
Local Sidereal Time
14:49:54
Azimuth
Unknown
Elevation
Unknown
Doppler factor
Unknown
Orbital elements
Apogee altitude
990.021 km
Perigee altitude
909.134 km
Semi-major axis
7,327.715 km
Eccentricity
0.00552
Inclination
66.2457°
RAAN
106.9307°
Arg. of periapsis
22.5397°
True anomaly
337.56758°
Mean anomaly
337.808°
Eccentric anomaly
337.68794°
Mean motion
3.46011 °/min
Orbital period
104.04 mins
BSTAR
0.00034053
Loading maneuver chart data...
Computing Atmospheric mass density...

Documentation

Showing up to 5 results
|